Location: Aragoneses
(41.0275°N, 4.3847°W)
Time: 04:49:32
(UTC+00:00)

ISS - Pass Details

Date: 21 February 2026
Orbit: 415 x 426 km, 51.6° (Epoch: 11 March)

Event Time Altitude Azimuth Distance (km) Brightness Sun altitude
Exits shadow 04:46:13 13° 27° (NNE) 1,301 -0.9 -26.6°
Drops below altitude 10° 04:46:50 10° 34° (NE) 1,495 -0.5 -26.5°
Sets 04:49:12 0° 50° (NE) 2,359 0.9 -26.1°
